Home > Weather > Lynchburg > Past weeks

Flag for USA Weather for the Past 2 Weeks in Lynchburg, Virginia, USA

Now
55 °F

Low clouds.


Feels Like: 52 °F
Forecast: 54 / 60 °F
Wind: 9 mph from Northeast

Location: Lynchburg Regional Airport

Current Time: Apr 30, 2016 at 12:29:48 AM

Latest Report: Apr 29, 2016 at 11:54 PM


Visibility: 10 mi

Pressure: 30.08 "Hg

Humidity: 96%

Dew Point: 54 °F

Location of LynchburgLocation

Historic Weather in Lynchburg — Graph

°F

Lynchburg Temperature Yesterday

Maximum temperature yesterday: 68 °F (at 12:54 PM)
Minimum temperature yesterday: 53 °F (at 2:54 AM)
Average temperature yesterday: 59 °F

High & Low Weather Summary for the Past Weeks

 TemperatureHumidityPressure
High84 °F (Apr 18, 3:54 PM)100% (Apr 22, 7:54 PM)30.46 "Hg (Apr 22, 7:54 PM)
Low34 °F (Apr 15, 6:54 AM)15% (Apr 18, 4:54 PM)29.74 "Hg (Apr 26, 5:54 PM)
Average61 °F61%30.09 "Hg
* Reported Apr 14 10:54 PM — Apr 29 10:54 PM, Lynchburg, Weather by CustomWeather, © 2016

Note: Actual official high and low records may vary slightly from our data, if they occured in-between our weather recording intervals... More about our weather records

Advertising

Lynchburg Weather History for the Previous 24 Hours

Scroll right to see more
 ConditionsComfort  
Time TempWeatherWind HumidityBarometerVisibility
10:54 PM
Fri, Apr 29
56 °FLow clouds.10 mph90%30.06 "Hg10 mi
9:54 PM56 °FLow clouds.7 mph93%30.04 "Hg10 mi
8:54 PM57 °FLow clouds.12 mph90%30.02 "Hg10 mi
7:54 PM58 °FOvercast.9 mph90%29.99 "Hg10 mi
7:03 PM60 °FPartly sunny.8 mph83%29.98 "Hg10 mi
5:54 PM63 °FPartly sunny.10 mph81%29.96 "Hg10 mi
4:54 PM65 °FPartly sunny.10 mph76%29.95 "Hg10 mi
3:54 PM67 °FPartly sunny.7 mph73%29.95 "Hg10 mi
3:03 PM67 °FPartly sunny.9 mph76%29.98 "Hg10 mi
1:54 PM68 °FPartly sunny.9 mph70%29.97 "Hg10 mi
1:01 PM68 °FPartly sunny.No wind70%30.01 "Hg10 mi
12:54 PM68 °FScattered clouds.6 mph73%29.99 "Hg10 mi
11:54 AM66 °FPassing clouds.No wind75%29.99 "Hg10 mi
10:54 AM61 °FLow clouds.3 mph83%30.00 "Hg10 mi
9:54 AM58 °FLow clouds.3 mph93%30.00 "Hg10 mi
8:54 AM56 °FFog.5 mph97%30.01 "Hg5 mi
8:01 AM55 °FLow clouds.No wind96%30.02 "Hg8 mi
6:54 AM53 °FFog.No wind100%30.01 "Hg1 mi
5:54 AM53 °FLow clouds.No wind100%29.98 "Hg8 mi
4:54 AM53 °FLow clouds.No wind100%29.98 "Hg10 mi
3:54 AM53 °FFog.No wind100%29.97 "Hg5 mi
2:54 AM53 °FLow clouds.3 mph100%29.95 "Hg10 mi
1:54 AM54 °FLow clouds.7 mph97%29.95 "Hg10 mi
12:54 AM54 °FMostly cloudy.7 mph97%29.96 "Hg10 mi
Weather by CustomWeather, © 2016

See weather overviewHow to use our weather pages